• MPC Preparation (Info)

  • MPEC 2018-K65 : 2018 KV1

    The following Minor Planet Electronic Circular may be linked-to from your own Web pages, but must not otherwise be redistributed electronically.

    A form allowing access to any MPEC is at the bottom of this page.


    Read MPEC 2018-K64 Read MPEC 2018-K66


    M.P.E.C. 2018-K65                                Issued 2018 May 22, 15:15 UT
    
         The Minor Planet Electronic Circulars contain information on unusual
             minor planets and routine data on comets.  They are published
        on behalf of Division F of the International Astronomical Union by the
              Minor Planet Center, Smithsonian Astrophysical Observatory,
                              Cambridge, MA 02138, U.S.A.
    
                 Prepared using the Tamkin Foundation Computer Network
    
                                  MPC@CFA.HARVARD.EDU
                URL https://www.minorplanetcenter.net/    ISSN 1523-6714
    
                                       2018 KV1
    
    Observations:
         K18K01V* C2018 05 20.36714 16 21 35.27 +48 29 19.6          20.7 GUEK065G96
         K18K01V  C2018 05 20.37238 16 21 37.73 +48 29 47.7          21.5 GUEK065G96
         K18K01V  C2018 05 20.37762 16 21 40.13 +48 30 14.5          20.6 GUEK065G96
         K18K01V  C2018 05 20.38286 16 21 42.61 +48 30 42.3          21.4 GUEK065G96
         K18K01V  C2018 05 20.45119 16 22 15.08 +48 36 26.7          21.3 GUEK065I52
         K18K01V  C2018 05 20.45616 16 22 17.45 +48 36 51.4          21.5 GUEK065I52
         K18K01V  C2018 05 20.45865 16 22 18.57 +48 37 03.9          20.9 GUEK065I52
         K18K01V  C2018 05 20.46622 16 22 22.05 +48 37 42.2          22.5 GUEK065G96
         K18K01V  C2018 05 20.46697 16 22 22.44 +48 37 45.1                UEK065G96
         K18K01V  C2018 05 20.46772 16 22 22.90 +48 37 48.8          21.7 GUEK065G96
         K18K01V  C2018 05 20.46847 16 22 23.26 +48 37 52.3          21.9 GUEK065G96
         K18K01V KC2018 05 20.94740 16 26 37.88 +49 18 17.4          21.2 VUEK065L01
         K18K01V KC2018 05 20.95400 16 26 40.97 +49 18 49.5          21.5 VUEK065L01
         K18K01V KC2018 05 20.96378 16 26 45.41 +49 19 38.2          20.9 VUEK065L01
         K18K01V  C2018 05 21.16527116 28 33.56 +49 35 40.5          20.7 GVEK065H01
         K18K01V  C2018 05 21.16906716 28 35.36 +49 36 00.0          21.1 GVEK065H01
         K18K01V  C2018 05 21.18234816 28 41.60 +49 37 07.1          20.6 GVEK065H01
         K18K01V  C2018 05 21.19547316 28 47.71 +49 38 13.1          20.6 GVEK065H01
         K18K01V KC2018 05 22.21710316 37 05.56 +50 53 23.6          21.4 VuEK065H21
         K18K01V KC2018 05 22.23324216 37 12.50 +50 54 31.4          21.2 VuEK065H21
         K18K01V  C2018 05 22.33032 16 37 57.43 +51 01 18.8          22.0 GUEK065V06
         K18K01V  C2018 05 22.33287 16 37 58.65 +51 01 29.7          23.3 GUEK065V06
         K18K01V  C2018 05 22.33542 16 37 59.54 +51 01 39.4          21.5 GUEK065V06
         K18K01V  C2018 05 22.33798 16 38 00.67 +51 01 49.9          21.3 GUEK065V06
    
    Observer details:
    G96 Mt. Lemmon Survey.  Observer R. A. Kowalski.  Measurers B. M. Africano,
        E. J. Christensen, D. C. Fuls, A. R. Gibbs, A. D. Grauer, H. Groeller,
        J. A. Johnson, R. A. Kowalski, S. M. Larson, G. J. Leonard, R. L. Seaman,
        F. C. Shelly.  1.5-m reflector + 10K CCD.
    H01 Magdalena Ridge Observatory, Socorro.  Observers W. H. Ryan, E. V. Ryan.
        Measurer W. H. Ryan.  2.4-m f/8.9 reflector + CCD.
    H21 Astronomical Research Observatory, Westfield.  Observer R. Holmes.
        Measurers S. Foglia, L. Buzzi, T. Linder, R. Holmes.  0.81-m f/4.0
        astrograph + CCD.
    I52 Steward Observatory, Mt. Lemmon Station.  Observer B. M. Africano.
        Measurers B. M. Africano, E. J. Christensen, D. C. Fuls, A. R. Gibbs,
        A. D. Grauer, H. Groeller, J. A. Johnson, R. A. Kowalski, S. M. Larson,
        G. J. Leonard, R. L. Seaman, F. C. Shelly.  1.0-m reflector + CCD.
    L01 Visnjan Observatory, Tican.  Observer K. Korlevic.  1.0-m f/2.9 reflector
        + CCD.
    V06 Catalina Sky Survey-Kuiper.  Observer R. A. Kowalski.  Measurers
        E. J. Christensen, D. C. Fuls, A. R. Gibbs, A. D. Grauer, J. A. Johnson,
        R. A. Kowalski, S. M. Larson, G. J. Leonard, R. G. Matheny, R. L. Seaman,
        F. C. Shelly.  1.55-m reflector + CCD.
    
    Orbital elements:
    2018 KV1                                                 Earth MOID = 0.0479 AU
    Epoch 2018 Mar. 23.0 TT = JDT 2458200.5                 MPC
    M 322.55042              (2000.0)            P               Q
    n   0.59117751     Peri.   20.79518     -0.44309710     +0.87638303
    a   1.4060177      Node   223.50015     -0.85635459     -0.47605535
    e   0.2574270      Incl.   15.91255     -0.26518254     +0.07296635
    P   1.67           H   24.4           G   0.15           U   8
    Residuals in seconds of arc
    180520 G96  0.1-  0.5-    180520 G96  1.0-  0.0     180521 H01  0.2+  0.0
    180520 G96  0.0   0.3+    180520 G96  0.0   0.0     180521 H01  0.1+  0.0
    180520 G96  0.5-  0.0     180520 G96  0.0   0.2-    180522 H21  1.1-  0.2+
    180520 G96  0.2-  0.7+    180520 L01  0.0   0.2+    180522 H21  1.3-  0.2+
    180520 I52  1.3+  0.4-    180520 L01  0.4+  0.5-    180522 V06  0.3+  0.2-
    180520 I52  1.2+  0.4-    180520 L01  0.4-  0.2-    180522 V06 (1.6+  0.3+)
    180520 I52  0.4+  0.2-    180521 H01  0.2+  0.1-    180522 V06  0.2-  0.3-
    180520 G96  1.3-  0.8+    180521 H01  0.2+  0.1+    180522 V06  0.3+  0.1-
    
    Ephemeris:
    2018 KV1                 a,e,i = 1.41, 0.26, 16                  q = 1.0441
    Date    TT    R. A. (2000) Decl.     Delta      r     Elong.  Phase     V
    2018 04 22    12 04 21.5 -46 48 05   0.1001  1.0813   137.8    38.6    21.1
    ...
    2018 05 07    14 02 44.8 -00 28 11   0.04978 1.0557   159.4    19.7    19.0
    ...
    2018 05 15    15 29 53.3 +36 41 58   0.06287 1.0477   124.6    52.6    20.4
    ...
    2018 05 21    16 27 02.5 +49 22 24   0.08600 1.0446   110.1    65.5    21.5
    2018 05 22    16 35 18.1 +50 38 00   0.09029 1.0444   108.5    66.8    21.6
    2018 05 23    16 43 10.9 +51 43 48   0.09464 1.0442   107.1    67.9    21.8
    ...
    2018 05 29    17 22 54.3 +55 55 53   0.1215  1.0444   101.5    72.0    22.4
    ...
    2018 06 06    17 59 19.7 +58 09 34   0.1575  1.0486    98.1    73.3    23.1
    ...
    2018 06 21    18 37 06.7 +58 30 12   0.2203  1.0681    97.6    70.6    23.7
    
    A. U. Tomatic                (C) Copyright 2018 MPC           M.P.E.C. 2018-K65
    

    Read MPEC 2018-K64 Read MPEC 2018-K66


    MPEC number:

    Enter an MPEC number in one of the following forms:

    • 1997-B01 (the full form)
    • J97B01 (the packed version of the full form)
    • B01 (the abbreviated form)